Regional Weather Roundup
Issued by NWS Newport/Morehead, NC

Current Version | Previous Version | Graphics & Text | Print | Product List | Glossary Off
Versions: 1 2 3 4 5 6 7 8 9 10 11 12 13 14 15 16 17 18 19 20 21 22 23 24 25 26 27 28 29 30 31 32 33 34 35 36 37 38 39 40 41 42 43 44 45 46 47 48 49 50

168
ASUS42 KMHX 020825
RWRMHX
WEATHER ROUNDUP FOR EASTERN NORTH CAROLINA
NATIONAL WEATHER SERVICE NEWPORT/MOREHEAD CITY NC
300 AM EST FRI DEC 02 2016

NOTE: "FAIR" INDICATES FEW OR NO CLOUDS BELOW 12,000 FEET
WITH NO SIGNIFICANT WEATHER AND/OR OBSTRUCTIONS TO VISIBILITY

NCZ015>017-031-032-045>047-102-103-020900-
NORTH COAST

CITY           SKY/WX    TMP DP  RH WIND       PRES   REMARKS
EDENTON        CLEAR     43  37  78 CALM      30.03R
ELIZABETH CITY CLEAR     40  36  86 NW6       30.01R
KITTY HAWK     SUNNY     51  44  77 N7        29.98R
MANTEO         CLEAR     50  43  77 NE13      29.99R

$$

NCZ045>047-081-094-103-104-020900-
CENTRAL COAST

CITY           SKY/WX    TMP DP  RH WIND       PRES   REMARKS
FRISCO         CLEAR     53  41  63 NW7       29.97S

$$

NCZ095-097-098-100-101-020900-
SOUTHERN COAST

CITY           SKY/WX    TMP DP  RH WIND       PRES   REMARKS
BEAUFORT       PTCLDY    48  39  71 N9        30.00R
CEDAR ISLAND   NOT AVBL
JACKSONVILLE   PTCLDY    46  39  76 N8        30.02R
PINEY ISLAND   SUNNY    N/A N/A N/A N13       30.00R
WILMINGTON     PTCLDY    47  40  76 N10       30.02R


$$

NCZ011>013-027>030-043-044-078>080-089-090>093-098-020900-
COASTAL PLAIN

CITY           SKY/WX    TMP DP  RH WIND       PRES   REMARKS
AHOSKIE        PTCLDY    38  33  82 CALM      30.05R
CLINTON        CLEAR     46  34  64 N6        30.06R
ELIZABETHTOWN  PTCLDY    43  39  85 CALM      30.04R
GOLDSBORO      CLEAR     45  32  61 N5        30.03R
GREENVILLE     PTCLDY    43  34  70 NW3       30.06R
HAVELOCK       CLEAR     49  37  63 N10       30.02R
KENANSVILLE    CLEAR     43  34  70 N9        30.05R
KINSTON          N/A     44  34  68 N7        30.05R
NEW BERN       PTCLDY    45  35  68 N9        30.03R
RICHLANDS      CLEAR     39  37  92 N3        30.04R
ROCKY MOUNT    CLEAR     37  34  89 CALM      30.06R
WASHINGTON     PTCLDY    42  34  73 NW5       30.03R
WHITEVILLE     PTCLDY    46  38  76 CALM      30.03R

$$

AMZ130-135-150-152-154-156-158-170-250-252-270-ANZ085-086-088-633-658-670-020900-
MARINE OBSERVATIONS

STATION/POSITION TIME  TEMP    WIND        PRES    WAVE   SWELL
                       AIR SEA DIR/SP/G            HT/PER HT/PER
                 (UTC) (F)     (DEG/KT/KT) (MB)    (FT/S) (FT/S)
CHESAPEAKE LIGHT NOT AVBL
64 E VA BEACH    0750   53 59  360/ 17/ 21 1014.5    5/ 5   2/ 8
DUCK             0800   52 57   10/ 14/ 16 1014.8
2 E DUCK         NOT AVBL
OREGON INLET     0800   53 60   10/ 10/ 16 1014.9
13E OREGON INLT  0800      64                N/A     3/ 8   2/ 8
HATTERAS CG      0800   54 64  330/ 15/ 17 1014.6
DIAMOND BUOY     0750   59 75  340/ 16/ 17 1014.7    4/ 8   2/ 8
CAPE LOOKOUT     0800   52     350/ 12/ 15 1015.3
BEAUFORT LAB     0800   51 60  360/ 12/ 16 1014.9
30 SE NEW RVR IN 0808   59 73   10/ 17/ 25 1015.8
30 SE NEW RVR IN NOT AVBL
27 SE WRIGHTSVLE 0808   58 67  350/ 16/ 23 1015.5
5 SE WRIGHTSVLE  0808   52 62   20/ 16/ 29 1015.6
225 S CAPE HAT   0750   74 74  270/ 16/ 17 1013.9    7/ 7
41 SE CHARLESTON 0750   60 75  310/ 17/ 19 1016.5    5/ 5   2/ 9

$$




USA.gov is the U.S. government's official web portal to all federal, state and local government web resources and services.